Vertical_Velocity
-3 -3 -3 -4 -6 -7 -8 -8 -6 -5 -5 -5 -6 -6 -5 -3 -3 -2 -0 1 -0 0 2 2 -0 -1 -0 1 1 2 5 12 19 20 16 11 3 -1 -2 -0 1 0 -1 -2 -2 -3 -3 -2 0 2 4 5 5 4 2 1 1 2 3 3 2 3 3 4 4 4 3 2 1
-2 -2 -2 -2 -4 -5 -7 -8 -7 -6 -5 -5 -5 -6 -6 -5 -5 -4 -2 -1 -0 1 2 2 1 1 2 2 3 2 1 2 10 16 16 11 3 -2 -3 -2 0 0 -1 -2 -3 -5 -6 -5 -2 1 4 6 6 4 2 -1 -1 -0 1 2 2 2 2 3 3 3 1 0 0
-1 -1 -2 -2 -3 -4 -5 -7 -7 -7 -6 -6 -5 -5 -5 -5 -5 -5 -4 -3 -1 1 2 2 2 2 2 2 4 4 5 5 11 16 18 13 4 -2 -4 -3 -0 1 1 1 -0 -3 -6 -7 -5 -1 3 5 5 4 2 -2 -4 -2 -0 2 1 1 1 2 2 1 -0 -1 -0
-0 -1 -3 -4 -4 -4 -5 -6 -7 -7 -7 -6 -6 -5 -4 -3 -4 -5 -6 -5 -3 -1 1 2 2 2 2 2 2 6 11 16 18 21 22 18 6 -1 -5 -5 -1 2 5 6 4 0 -3 -7 -7 -4 -0 3 3 3 2 -1 -4 -4 -1 1 0 -0 0 1 0 -1 -1 -1 -0
-2 -2 -3 -4 -5 -5 -5 -5 -6 -6 -7 -6 -6 -5 -4 -3 -4 -5 -6 -6 -4 -2 0 2 2 4 5 6 1 3 9 19 20 21 18 12 3 -2 -4 -4 -2 3 7 7 4 1 -2 -6 -9 -8 -5 -2 -0 1 1 -2 -5 -5 -3 -1 -1 -2 -1 -0 -1 -1 -1 0 1
-5 -4 -4 -3 -3 -3 -4 -4 -4 -5 -5 -6 -5 -5 -4 -4 -4 -5 -6 -6 -6 -3 -0 2 2 4 7 12 6 2 3 11 16 17 14 6 1 -1 -1 -2 -2 1 3 4 1 -1 -3 -5 -7 -8 -8 -6 -3 -1 -1 -4 -8 -8 -5 -3 -3 -2 -1 -0 0 1 1 1 1
-4 -3 -3 -2 -2 -2 -2 -3 -3 -4 -4 -4 -4 -4 -4 -4 -4 -5 -5 -6 -6 -4 -2 0 -0 1 5 13 12 7 4 8 13 13 9 2 -0 -0 1 1 0 -0 -0 0 -0 -1 -3 -3 -4 -6 -8 -7 -4 -2 -3 -6 -8 -8 -6 -4 -2 -0 1 1 2 2 2 2 1
-1 -0 -0 -1 -1 -1 -2 -2 -2 -3 -4 -4 -3 -4 -4 -4 -4 -4 -4 -4 -5 -4 -3 -1 -1 -1 1 8 14 14 13 14 16 14 7 -1 -3 -2 1 3 3 2 1 0 1 1 1 0 -1 -4 -7 -8 -6 -4 -4 -5 -5 -5 -4 -4 -2 -0 1 2 3 2 2 2 1
-0 -0 -0 -0 -0 -0 -1 -1 -1 -2 -3 -3 -3 -3 -4 -4 -4 -4 -4 -4 -4 -3 -2 -2 -1 -2 -1 2 11 17 20 20 21 18 11 2 -2 -3 -1 2 3 3 2 1 1 2 2 2 -1 -5 -7 -6 -5 -5 -5 -3 -2 -1 -1 -1 0 1 1 1 1 1 0 1 -0
-2 -1 -2 -2 -1 -1 -1 -1 -1 -1 -1 -3 -3 -3 -3 -3 -3 -3 -4 -4 -4 -3 -2 -1 -1 -1 -1 -1 4 12 18 21 22 20 15 8 4 1 -0 0 1 1 0 -0 -0 1 2 2 -2 -5 -5 -1 -0 -2 -3 -4 -2 -0 1 1 2 1 -1 -2 -2 -2 -3 -4 -4
-2 -2 -2 -2 -2 -2 -2 -2 -2 -2 -2 -2 -3 -3 -2 -1 -1 -2 -3 -4 -4 -3 -1 0 0 -0 -1 -2 -1 4 10 14 17 18 16 13 10 7 4 2 1 0 -0 -2 -1 1 2 -0 -5 -6 -3 3 5 3 -0 -4 -4 -2 -0 0 -0 -1 -3 -4 -4 -4 -5 -7 -7
-2 -2 -2 -2 -2 -3 -3 -3 -3 -3 -3 -3 -4 -3 -2 -0 0 -0 -1 -2 -2 -2 -1 1 1 0 -1 -1 -1 0 3 7 11 13 14 15 14 11 8 5 3 1 0 -1 0 1 0 -6 -9 -7 -3 1 7 7 3 -3 -4 -3 -1 0 -0 -1 -2 -3 -4 -5 -6 -7 -8
-2 -2 -2 -2 -3 -3 -3 -4 -3 -3 -3 -4 -4 -3 -2 -0 1 1 0 -1 -1 -1 -1 1 1 1 0 0 1 2 4 5 7 10 12 14 13 11 8 4 2 1 1 -1 0 1 -1 -8 -9 -7 -4 -0 6 9 7 1 -2 -2 -0 1 0 -1 -1 -2 -4 -5 -6 -6 -7
-2 -2 -3 -3 -3 -4 -4 -4 -4 -4 -4 -4 -3 -2 -1 0 1 2 1 -0 -1 -1 -0 0 1 2 2 2 3 4 5 6 7 8 10 11 10 7 3 -2 -3 -2 -1 -2 1 1 -1 -6 -7 -5 -2 1 5 8 9 5 1 -0 0 1 0 -0 -1 -2 -4 -5 -5 -5 -5
-2 -2 -2 -3 -3 -4 -4 -4 -4 -4 -4 -3 -3 -2 -1 1 2 2 1 0 -1 -1 -0 0 1 2 3 4 3 4 4 5 5 6 7 8 7 3 -3 -9 -8 -6 -4 -3 -1 -1 -3 -5 -4 -1 1 2 4 6 7 6 3 1 1 1 1 1 -0 -3 -4 -4 -4 -3 -1
-2 -2 -2 -3 -3 -4 -4 -4 -4 -4 -4 -4 -3 -2 -1 0 1 2 1 -0 -1 -1 -0 1 0 1 2 4 2 2 3 4 4 5 6 8 9 6 -0 -7 -7 -6 -4 -3 -4 -4 -5 -5 -1 1 2 2 3 5 6 5 3 2 2 3 4 2 -0 -3 -4 -4 -3 -2 1
-2 -2 -2 -2 -2 -3 -3 -4 -4 -4 -4 -4 -3 -2 -1 -1 0 1 0 -0 -1 -0 -0 1 2 2 2 2 1 1 1 2 2 4 6 9 10 8 5 -0 -2 -2 -2 -1 -1 0 1 2 2 2 1 1 4 5 5 4 3 3 4 6 5 3 -1 -4 -4 -4 -3 -1 2
-2 -2 -2 -2 -2 -2 -3 -3 -3 -3 -3 -3 -3 -3 -2 -1 -0 0 1 1 1 0 -0 -0 2 3 3 1 0 -1 -2 -3 -4 -4 -3 -1 0 1 0 -1 -2 -3 -2 -1 3 8 11 11 6 3 1 2 4 5 5 3 3 4 5 7 4 1 -2 -4 -4 -3 -2 -1 2
-2 -2 -2 -2 -2 -2 -3 -2 -2 -2 -2 -3 -3 -3 -2 -1 -0 0 1 3 3 2 0 -2 0 4 7 6 3 -0 -2 -5 -7 -8 -8 -8 -6 -4 -2 -3 -5 -5 -5 -4 -0 5 10 12 8 5 4 4 5 6 5 4 4 4 5 5 1 -2 -4 -4 -3 -2 -2 -1 1
-2 -2 -2 -2 -3 -3 -3 -3 -2 -2 -3 -3 -3 -3 -2 -1 -0 0 2 4 4 4 1 -2 -2 2 8 14 14 13 11 8 6 3 1 1 2 2 1 -0 -4 -5 -4 -2 -2 -0 3 8 9 8 7 6 6 5 4 4 4 4 4 1 -2 -3 -4 -3 -3 -2 -2 -1 -0
-2 -2 -2 -2 -3 -3 -3 -3 -2 -2 -2 -3 -3 -2 -2 -1 -1 -0 1 3 4 4 3 1 -3 -3 1 9 17 21 23 22 20 17 14 11 9 7 5 4 1 -0 -0 1 2 3 5 9 11 11 9 8 6 5 4 4 5 4 2 -1 -2 -2 -2 -2 -2 -2 -2 -1 -0
-2 -1 -1 -2 -3 -3 -2 -2 -1 -1 -1 -2 -2 -2 -1 -1 -1 -1 -0 1 3 4 4 4 0 -3 -5 -3 3 8 13 16 17 17 16 14 12 12 12 12 12 11 12 14 14 14 15 16 16 14 12 9 6 5 4 5 4 2 1 -1 -1 -1 -2 -3 -3 -2 -1 0 1
-2 -1 -1 -1 -2 -2 -2 -1 -0 -0 -0 -1 -1 -1 -1 -1 -1 -1 -0 0 1 2 3 4 3 2 -0 -2 -3 -2 -0 3 6 8 10 12 12 13 14 17 19 20 20 19 19 19 19 19 18 16 13 9 6 5 4 4 3 2 0 -0 -1 -2 -3 -3 -2 -0 1 2 2
-2 -1 -0 -0 -1 -1 -1 -0 0 0 -0 -0 -1 -1 -1 -1 -1 -1 -0 0 -0 0 0 1 1 2 3 3 0 -1 -2 -1 1 3 6 9 11 13 15 18 20 20 18 16 15 15 15 16 16 14 11 8 6 5 4 3 2 1 0 -1 -2 -2 -2 -1 1 2 3 3 3
-2 -1 0 0 -1 -1 -1 0 0 -0 -0 -0 -0 -0 -0 0 0 -0 0 0 0 0 0 0 1 1 1 1 -0 -1 -1 1 3 5 7 10 12 14 16 18 18 17 14 12 11 10 11 12 12 11 9 7 6 5 3 2 1 -0 -1 -2 -1 -0 1 2 3 4 4 4 3
-2 -0 0 1 -1 -2 -1 0 1 0 0 0 1 1 1 1 1 1 1 2 3 3 4 4 4 4 3 1 1 2 3 4 6 7 9 11 13 14 15 15 14 12 11 10 9 9 10 10 10 10 9 8 6 4 2 0 -1 -1 -1 -1 0 2 3 4 5 5 5 4 4
-2 -1 0 0 -1 -2 -1 0 1 1 1 0 1 1 2 2 2 2 2 3 6 7 8 7 6 6 6 5 6 8 9 11 11 10 10 9 9 9 9 9 8 8 7 8 8 9 10 10 10 10 9 8 6 4 2 -0 -0 -0 1 2 3 4 5 6 6 5 5 4 4
-2 -1 -0 0 -1 -2 -1 0 2 2 1 0 1 2 2 3 3 3 3 2 4 6 7 7 6 7 8 8 9 10 11 14 15 15 14 12 9 7 6 5 4 4 4 6 7 8 10 10 10 10 9 7 5 3 1 1 1 2 3 4 5 5 6 6 5 5 5 4 3
-2 -2 -1 -0 -1 -2 -2 -0 1 1 1 0 1 2 3 3 4 4 4 3 1 1 0 1 2 4 6 8 10 10 11 11 12 13 13 12 10 7 5 4 3 3 3 4 6 8 9 10 10 8 6 4 2 1 1 2 3 4 5 6 6 6 5 5 4 4 4 3 2
-2 -2 -1 -0 -1 -1 -2 -1 0 1 1 0 1 1 2 3 4 4 5 5 4 1 -0 -1 -1 1 2 5 8 10 10 10 9 8 8 8 7 5 4 3 3 3 3 5 6 7 8 8 7 5 3 1 1 1 2 3 4 5 5 6 5 5 4 3 3 2 2 1 1
-1 -1 -1 -1 -1 -1 -1 -1 -0 1 1 1 0 1 2 3 4 4 4 5 5 4 2 1 1 1 2 3 5 6 7 7 7 7 6 6 5 4 3 3 4 4 4 5 5 5 5 5 5 4 3 2 2 2 3 4 5 5 5 5 5 4 3 2 1 1 0 0 -0
-1 -1 -1 -1 -1 -1 -1 -0 0 1 1 1 0 1 1 2 3 4 4 4 5 4 4 3 2 2 2 2 2 3 3 4 5 5 5 5 4 4 3 3 3 4 4 4 4 3 3 3 3 3 4 3 3 4 4 4 4 4 4 4 4 3 2 1 0 -0 -1 -1 -1
-0 -0 -1 -1 -1 -1 -1 -0 0 1 1 1 0 0 1 2 3 4 4 4 4 4 4 3 3 3 3 3 2 1 -0 -0 -0 -0 0 1 2 2 2 2 2 2 2 3 3 2 2 1 1 2 2 3 3 3 3 3 3 3 3 3 3 2 1 0 -1 -1 -1 -1 -1
-0 -0 -0 -0 -1 -1 -1 -0 0 1 1 1 0 -0 -0 1 2 3 4 3 4 4 4 3 3 3 4 5 5 3 1 -1 -2 -2 -3 -3 -2 -1 -0 0 1 1 2 2 2 2 1 0 0 1 2 3 3 2 2 2 2 2 3 2 2 1 0 -1 -1 -2 -2 -1 -1
-1 -1 -1 -1 -1 -1 -1 -1 0 1 1 1 1 -0 -0 -0 1 2 3 3 3 3 3 2 2 2 3 4 6 6 5 3 2 1 0 -0 -1 -1 -1 -0 0 1 1 2 2 1 1 0 1 2 3 3 2 1 1 1 2 2 2 2 2 2 1 -0 -1 -2 -2 -1 -1
-1 -1 -1 -1 -1 -1 -1 -1 0 1 1 1 1 0 -0 -1 0 2 3 3 3 3 2 2 2 2 2 2 3 5 5 6 5 4 4 3 3 2 2 1 2 2 2 2 1 1 0 -1 1 3 4 4 1 0 0 0 1 1 2 3 3 3 3 1 0 -1 -1 -1 -0
-1 -1 -1 -1 -1 -1 -1 -1 -0 1 1 1 1 0 -0 -1 -0 0 1 3 3 3 2 1 2 2 2 2 2 2 3 4 4 4 4 4 5 4 4 4 4 4 3 3 2 1 -0 -2 0 3 5 4 2 0 -0 -0 -0 -0 1 2 3 4 4 3 1 0 0 1 1
-1 -1 -1 -1 -1 -1 -1 -1 -0 0 1 1 1 1 0 -0 -0 -0 0 1 2 2 2 1 1 1 2 2 1 1 1 1 2 2 3 4 4 5 5 6 6 5 5 4 3 1 -0 -1 1 4 5 4 2 1 -0 -1 -1 -1 -1 -0 1 3 4 3 1 0 1 1 2
-1 -1 -1 -1 -1 -1 -1 -1 -1 -0 1 1 1 1 1 1 0 0 0 1 2 2 1 0 -0 0 1 2 2 2 2 2 2 2 2 2 3 4 5 6 6 6 5 5 3 1 0 -0 1 3 3 2 1 0 -0 -1 -2 -2 -2 -1 0 2 3 3 1 -0 0 1 1
-1 -1 -1 -1 -1 -1 -1 -0 -0 -0 0 1 1 2 2 2 1 1 1 1 1 1 1 0 -1 -1 -0 1 2 2 3 3 4 3 3 2 2 2 3 5 5 6 5 5 4 2 0 -0 1 1 1 1 -0 -1 -1 -1 -2 -2 -2 -1 -0 1 2 2 0 -0 -0 0 0
-1 -1 -1 -1 -1 -1 -1 -0 -0 -0 0 0 1 1 2 2 2 2 1 1 1 1 1 1 -0 -1 -1 -1 0 1 2 3 3 3 3 2 2 2 3 4 4 5 5 5 3 1 -1 -1 -0 0 0 -0 -1 -1 -1 -1 -1 -1 -1 -1 -0 1 1 1 -0 -1 -1 -0 -0
Height
3003 3002 3001 3000 2998 2997 2996 2995 2994 2993 2991 2990 2988 2987 2987 2986 2985 2984 2985 2985 2985 2985 2986 2987 2987 2988 2989 2990 2991 2991 2991 2992 2992 2991 2990 2990 2991 2992 2994 2996 2996 2997 2997 2997 2997 2998 2998 2999 2999 3000 3000 3000 3001 3002 3003 3004 3005 3005 3006 3006 3007 3007 3008 3008 3009 3010 3011 3012 3013
3001 3000 2998 2997 2996 2994 2993 2992 2991 2990 2989 2987 2986 2985 2983 2982 2982 2981 2981 2981 2981 2981 2982 2982 2983 2984 2985 2986 2987 2988 2988 2988 2989 2988 2987 2987 2987 2989 2991 2992 2994 2994 2994 2995 2995 2995 2996 2996 2997 2997 2997 2998 2998 2999 3000 3001 3002 3002 3003 3003 3004 3005 3005 3006 3007 3008 3009 3010 3010
2998 2997 2996 2994 2993 2992 2990 2989 2988 2987 2986 2984 2983 2982 2981 2980 2979 2978 2977 2977 2977 2978 2978 2978 2979 2980 2981 2982 2983 2984 2985 2985 2985 2985 2983 2983 2984 2986 2988 2990 2991 2992 2992 2992 2992 2992 2993 2993 2994 2995 2995 2995 2996 2996 2997 2997 2999 3000 3000 3000 3001 3002 3003 3003 3004 3005 3007 3007 3008
2996 2995 2993 2992 2991 2989 2988 2986 2985 2984 2982 2981 2980 2979 2978 2977 2976 2975 2974 2974 2974 2974 2974 2974 2975 2976 2977 2978 2978 2980 2982 2982 2982 2981 2980 2980 2981 2982 2985 2987 2988 2989 2989 2988 2988 2989 2989 2990 2991 2992 2992 2993 2993 2993 2994 2995 2996 2997 2997 2997 2998 2999 3000 3001 3002 3003 3004 3005 3005
2994 2993 2991 2990 2988 2987 2985 2984 2982 2981 2980 2978 2977 2976 2975 2973 2972 2972 2971 2971 2971 2971 2971 2971 2972 2972 2973 2974 2975 2976 2978 2979 2978 2977 2977 2977 2978 2980 2982 2983 2985 2986 2986 2985 2985 2985 2986 2987 2988 2989 2990 2990 2991 2991 2992 2992 2994 2994 2995 2995 2996 2997 2998 2998 2999 3000 3001 3002 3002
2992 2990 2989 2987 2986 2984 2983 2982 2980 2978 2977 2976 2974 2973 2972 2970 2969 2968 2967 2967 2967 2967 2967 2967 2968 2969 2970 2971 2972 2972 2973 2975 2975 2975 2975 2975 2976 2977 2978 2980 2982 2983 2983 2982 2982 2982 2983 2984 2985 2985 2986 2987 2988 2988 2989 2990 2992 2992 2993 2993 2994 2994 2995 2996 2997 2997 2998 2999 2999
2990 2988 2987 2985 2983 2982 2980 2979 2977 2976 2974 2973 2971 2970 2968 2967 2966 2965 2964 2964 2963 2963 2964 2964 2964 2965 2967 2968 2968 2969 2970 2971 2971 2972 2972 2971 2972 2974 2975 2977 2979 2980 2981 2981 2980 2981 2981 2981 2982 2982 2983 2984 2985 2986 2987 2988 2989 2990 2991 2991 2991 2992 2992 2992 2993 2994 2995 2995 2996
2987 2986 2984 2983 2981 2980 2978 2976 2975 2973 2971 2970 2968 2966 2965 2963 2962 2961 2961 2960 2960 2960 2960 2960 2961 2962 2963 2964 2965 2965 2966 2967 2967 2967 2967 2968 2969 2970 2972 2974 2976 2977 2978 2978 2979 2979 2979 2979 2980 2980 2981 2982 2983 2984 2985 2986 2987 2987 2988 2988 2989 2989 2990 2990 2991 2991 2992 2992 2993
2986 2984 2982 2981 2979 2977 2976 2974 2972 2970 2968 2966 2965 2963 2961 2960 2958 2957 2957 2956 2956 2956 2957 2957 2957 2958 2959 2960 2962 2962 2962 2963 2963 2963 2964 2964 2965 2967 2969 2971 2972 2974 2975 2975 2976 2976 2977 2977 2978 2978 2979 2981 2981 2982 2983 2984 2985 2985 2986 2986 2987 2987 2988 2988 2988 2989 2989 2989 2990
2983 2982 2980 2979 2977 2975 2973 2971 2969 2967 2965 2962 2961 2959 2957 2956 2955 2954 2953 2952 2952 2952 2953 2953 2953 2954 2955 2957 2958 2959 2959 2959 2960 2960 2960 2961 2962 2963 2965 2967 2969 2970 2971 2972 2972 2973 2973 2974 2974 2975 2977 2978 2979 2980 2981 2982 2982 2982 2983 2984 2984 2985 2986 2986 2986 2986 2986 2987 2987
2982 2980 2978 2976 2974 2972 2970 2968 2966 2963 2961 2959 2957 2955 2953 2952 2951 2950 2949 2949 2948 2948 2949 2949 2950 2950 2951 2953 2955 2956 2957 2957 2957 2957 2957 2957 2959 2961 2962 2964 2965 2967 2967 2968 2969 2969 2970 2970 2970 2972 2973 2976 2977 2977 2978 2979 2979 2980 2981 2981 2982 2982 2983 2983 2983 2983 2984 2984 2985
2980 2978 2976 2974 2972 2970 2967 2965 2962 2960 2957 2955 2952 2950 2948 2947 2947 2946 2945 2945 2945 2945 2945 2945 2946 2946 2947 2949 2951 2953 2954 2954 2954 2955 2955 2955 2956 2958 2959 2961 2962 2963 2964 2965 2966 2966 2967 2966 2966 2967 2970 2972 2973 2974 2975 2976 2977 2977 2978 2978 2979 2979 2980 2980 2981 2981 2982 2982 2982
2978 2976 2974 2972 2969 2967 2964 2962 2959 2956 2953 2950 2948 2946 2944 2943 2942 2942 2941 2941 2941 2941 2941 2942 2942 2943 2944 2945 2947 2949 2951 2952 2952 2952 2953 2953 2954 2955 2957 2958 2959 2960 2961 2961 2962 2963 2963 2963 2963 2964 2966 2967 2969 2970 2971 2972 2974 2975 2975 2976 2976 2977 2977 2977 2978 2978 2979 2979 2979
2976 2974 2972 2969 2967 2964 2961 2958 2955 2952 2949 2947 2944 2942 2940 2939 2939 2938 2938 2937 2937 2937 2937 2938 2938 2939 2940 2942 2943 2946 2947 2948 2949 2950 2950 2951 2952 2953 2954 2955 2955 2956 2957 2958 2959 2960 2960 2960 2960 2961 2962 2963 2964 2966 2967 2969 2971 2972 2972 2973 2973 2974 2974 2975 2976 2976 2976 2976 2977
2974 2972 2969 2967 2964 2962 2959 2956 2952 2949 2946 2943 2941 2939 2937 2936 2936 2935 2935 2935 2934 2934 2934 2935 2935 2936 2937 2939 2940 2942 2944 2946 2947 2948 2948 2949 2950 2951 2951 2952 2952 2953 2954 2955 2956 2956 2957 2957 2957 2957 2958 2959 2961 2962 2964 2966 2967 2968 2969 2970 2971 2971 2972 2972 2973 2973 2974 2974 2974
2972 2970 2967 2965 2962 2959 2956 2953 2950 2947 2943 2941 2938 2937 2935 2934 2934 2933 2933 2932 2932 2932 2932 2932 2932 2933 2934 2936 2937 2940 2942 2943 2944 2946 2947 2947 2948 2948 2948 2949 2950 2951 2952 2952 2953 2953 2953 2953 2953 2954 2955 2956 2957 2959 2961 2962 2964 2965 2966 2967 2967 2968 2968 2969 2970 2970 2970 2971 2971
2970 2968 2966 2963 2960 2957 2954 2951 2947 2944 2942 2939 2937 2935 2934 2933 2932 2932 2932 2931 2930 2930 2930 2930 2931 2932 2933 2934 2936 2937 2939 2941 2942 2943 2944 2945 2946 2946 2946 2947 2947 2948 2949 2950 2950 2950 2950 2950 2950 2951 2952 2953 2954 2956 2957 2959 2961 2962 2962 2963 2964 2965 2965 2966 2966 2967 2967 2967 2967
2969 2966 2964 2961 2958 2956 2952 2949 2946 2943 2940 2938 2936 2934 2933 2932 2931 2931 2930 2930 2929 2929 2929 2929 2930 2931 2932 2933 2935 2936 2937 2939 2940 2941 2942 2942 2943 2944 2944 2944 2945 2946 2946 2947 2947 2947 2947 2947 2947 2948 2948 2950 2951 2952 2954 2956 2957 2958 2959 2960 2961 2961 2962 2962 2963 2963 2963 2964 2964
2967 2965 2962 2959 2957 2954 2951 2948 2945 2942 2939 2937 2935 2934 2933 2932 2931 2930 2930 2929 2928 2928 2928 2928 2929 2930 2932 2933 2934 2935 2937 2937 2938 2939 2939 2940 2941 2942 2942 2942 2942 2942 2943 2944 2944 2944 2944 2944 2945 2945 2946 2947 2948 2949 2951 2953 2954 2955 2956 2957 2957 2958 2959 2959 2960 2960 2960 2961 2961
2966 2963 2961 2958 2955 2952 2949 2947 2944 2941 2939 2937 2935 2933 2932 2931 2931 2930 2929 2928 2928 2927 2927 2927 2928 2929 2930 2932 2933 2934 2936 2936 2936 2937 2937 2938 2939 2939 2940 2940 2940 2939 2940 2941 2941 2941 2941 2942 2942 2942 2943 2944 2945 2947 2948 2950 2951 2952 2953 2954 2955 2955 2956 2957 2957 2957 2957 2958 2958
2964 2962 2959 2957 2954 2951 2948 2946 2943 2940 2938 2936 2935 2933 2932 2931 2930 2929 2928 2927 2927 2927 2927 2927 2927 2928 2928 2929 2930 2932 2932 2933 2933 2934 2935 2936 2936 2937 2937 2937 2937 2937 2937 2938 2938 2938 2938 2939 2939 2939 2940 2941 2942 2944 2945 2947 2948 2949 2950 2951 2952 2952 2953 2954 2954 2954 2954 2955 2956
2963 2960 2958 2955 2953 2950 2947 2945 2942 2940 2938 2936 2934 2933 2932 2931 2930 2929 2928 2927 2927 2926 2926 2926 2927 2927 2927 2928 2928 2928 2929 2930 2931 2932 2933 2934 2934 2934 2935 2934 2934 2934 2934 2935 2935 2935 2936 2936 2937 2937 2937 2938 2940 2941 2943 2944 2946 2947 2947 2948 2949 2950 2950 2951 2951 2951 2952 2952 2953
2961 2959 2957 2954 2952 2949 2947 2945 2942 2940 2938 2936 2934 2933 2932 2931 2929 2928 2927 2927 2926 2926 2925 2925 2926 2926 2927 2927 2927 2928 2928 2929 2930 2931 2932 2932 2932 2932 2932 2932 2932 2932 2932 2932 2932 2933 2933 2934 2934 2934 2935 2936 2937 2939 2940 2942 2943 2944 2945 2946 2946 2947 2947 2947 2948 2948 2948 2949 2949
2960 2958 2956 2953 2951 2949 2947 2944 2942 2940 2937 2936 2934 2933 2932 2931 2930 2928 2927 2927 2926 2925 2925 2924 2925 2925 2925 2926 2926 2926 2927 2927 2928 2929 2929 2930 2930 2930 2931 2931 2931 2930 2930 2931 2931 2931 2932 2932 2932 2932 2933 2934 2935 2937 2938 2939 2940 2941 2942 2943 2943 2944 2944 2944 2945 2945 2945 2946 2946
2958 2957 2955 2953 2951 2948 2946 2944 2942 2939 2937 2936 2934 2933 2932 2931 2930 2929 2928 2927 2926 2925 2925 2924 2924 2924 2924 2924 2924 2924 2925 2925 2926 2926 2927 2927 2928 2928 2928 2928 2928 2928 2928 2929 2929 2929 2930 2930 2931 2931 2931 2932 2933 2934 2936 2937 2937 2938 2939 2940 2940 2941 2941 2941 2942 2942 2942 2943 2943
2957 2956 2954 2952 2950 2948 2946 2944 2941 2939 2937 2935 2934 2933 2932 2932 2931 2929 2928 2928 2927 2926 2926 2925 2925 2924 2924 2924 2924 2924 2924 2924 2924 2924 2925 2925 2925 2926 2926 2926 2926 2926 2926 2927 2927 2927 2928 2928 2929 2929 2930 2931 2932 2932 2933 2934 2935 2936 2937 2937 2937 2937 2938 2938 2938 2939 2939 2940 2940
2956 2954 2953 2951 2949 2947 2945 2943 2941 2939 2937 2935 2934 2933 2933 2932 2931 2930 2929 2928 2928 2927 2927 2926 2926 2925 2925 2925 2924 2924 2924 2924 2923 2923 2923 2923 2923 2924 2924 2924 2924 2924 2924 2925 2925 2926 2926 2927 2927 2928 2928 2929 2930 2930 2931 2932 2932 2933 2933 2934 2934 2934 2935 2935 2936 2936 2936 2937 2937
2955 2953 2952 2950 2948 2946 2945 2943 2941 2939 2937 2935 2933 2933 2932 2932 2931 2930 2929 2928 2928 2927 2927 2926 2926 2926 2925 2925 2925 2925 2924 2924 2924 2924 2923 2923 2922 2922 2922 2922 2923 2923 2923 2923 2924 2924 2924 2925 2925 2926 2926 2927 2927 2928 2929 2929 2930 2930 2931 2931 2931 2932 2932 2932 2933 2933 2934 2934 2934
2953 2952 2950 2949 2947 2946 2944 2942 2941 2938 2937 2935 2933 2932 2932 2932 2931 2931 2930 2928 2927 2926 2926 2925 2925 2925 2925 2925 2925 2925 2924 2924 2924 2923 2923 2923 2922 2922 2922 2921 2921 2921 2922 2922 2922 2922 2923 2923 2923 2923 2924 2924 2925 2925 2926 2927 2927 2927 2928 2928 2928 2929 2929 2930 2930 2931 2931 2931 2932
2952 2950 2949 2947 2946 2944 2943 2942 2940 2938 2936 2934 2933 2932 2931 2931 2930 2930 2929 2929 2927 2927 2926 2925 2924 2924 2924 2924 2924 2924 2924 2923 2923 2923 2923 2922 2922 2922 2921 2921 2921 2920 2920 2920 2921 2921 2921 2921 2921 2921 2922 2922 2922 2923 2923 2923 2924 2924 2925 2925 2926 2926 2927 2927 2927 2928 2928 2929 2929
2951 2949 2947 2946 2945 2943 2942 2941 2939 2937 2936 2934 2932 2931 2930 2929 2929 2929 2929 2928 2927 2927 2926 2925 2925 2924 2923 2923 2923 2923 2923 2923 2922 2922 2922 2922 2922 2921 2921 2920 2920 2920 2919 2919 2919 2919 2919 2919 2919 2919 2919 2920 2920 2920 2920 2921 2921 2922 2922 2923 2923 2924 2924 2924 2925 2925 2925 2926 2926
2949 2948 2946 2945 2944 2942 2941 2940 2938 2937 2935 2933 2932 2930 2929 2928 2928 2928 2927 2927 2927 2926 2926 2925 2924 2924 2924 2923 2923 2922 2922 2922 2922 2921 2921 2921 2920 2920 2919 2919 2919 2918 2918 2918 2917 2917 2917 2917 2917 2917 2917 2917 2917 2918 2918 2918 2919 2919 2920 2920 2921 2921 2922 2922 2922 2922 2922 2923 2923
2948 2947 2945 2944 2942 2941 2940 2938 2937 2936 2934 2933 2931 2930 2928 2927 2927 2927 2926 2926 2925 2925 2925 2924 2924 2923 2923 2922 2922 2922 2921 2921 2920 2920 2919 2919 2918 2918 2917 2917 2917 2917 2916 2916 2916 2915 2915 2915 2915 2915 2915 2915 2915 2916 2916 2916 2917 2917 2917 2918 2918 2918 2919 2919 2919 2919 2920 2920 2921
2947 2945 2944 2942 2941 2940 2939 2937 2936 2935 2933 2932 2931 2929 2928 2927 2926 2925 2925 2924 2924 2923 2923 2923 2922 2922 2922 2922 2921 2921 2920 2919 2918 2918 2917 2917 2917 2916 2915 2915 2915 2914 2914 2914 2914 2913 2913 2913 2912 2912 2913 2913 2913 2913 2913 2914 2914 2915 2915 2915 2916 2916 2916 2917 2917 2917 2917 2917 2918
2945 2944 2942 2941 2940 2939 2937 2936 2935 2934 2932 2931 2930 2929 2927 2926 2925 2924 2923 2923 2922 2922 2921 2921 2921 2920 2920 2920 2920 2919 2919 2918 2917 2917 2916 2916 2915 2914 2914 2913 2913 2913 2913 2912 2912 2912 2911 2911 2911 2911 2911 2911 2911 2911 2911 2912 2912 2912 2913 2913 2914 2914 2914 2914 2914 2914 2914 2915 2916
2943 2942 2941 2940 2938 2937 2936 2935 2934 2933 2932 2930 2929 2928 2927 2925 2924 2923 2922 2922 2921 2920 2920 2919 2918 2918 2918 2918 2917 2917 2917 2917 2916 2916 2915 2915 2914 2913 2913 2913 2912 2912 2912 2912 2911 2911 2910 2910 2910 2910 2910 2910 2909 2909 2909 2909 2909 2910 2910 2911 2911 2912 2912 2912 2912 2912 2912 2913 2913
2942 2941 2939 2938 2937 2936 2935 2934 2932 2932 2930 2929 2928 2927 2926 2925 2924 2922 2922 2921 2920 2919 2918 2917 2917 2916 2916 2916 2915 2915 2915 2915 2915 2914 2914 2913 2913 2912 2912 2912 2912 2912 2911 2911 2911 2910 2909 2909 2908 2908 2908 2908 2907 2907 2907 2907 2907 2907 2907 2908 2909 2910 2910 2910 2910 2910 2911 2911 2912
2940 2939 2937 2937 2935 2934 2933 2932 2931 2930 2929 2928 2927 2926 2925 2924 2923 2922 2921 2920 2919 2918 2917 2916 2915 2915 2914 2914 2913 2913 2913 2912 2912 2912 2912 2912 2912 2911 2911 2911 2911 2911 2910 2910 2909 2909 2908 2907 2907 2907 2907 2907 2906 2906 2906 2905 2905 2905 2905 2906 2907 2907 2908 2908 2908 2908 2909 2909 2910
2938 2937 2936 2935 2934 2933 2932 2931 2930 2929 2928 2927 2926 2925 2924 2923 2922 2921 2920 2919 2918 2917 2916 2915 2914 2913 2912 2912 2912 2911 2911 2911 2910 2910 2910 2910 2909 2909 2909 2909 2909 2909 2909 2908 2907 2907 2906 2905 2905 2905 2905 2905 2905 2904 2904 2904 2903 2903 2903 2904 2904 2905 2906 2906 2906 2906 2907 2907 2907
2937 2936 2934 2933 2932 2931 2930 2929 2928 2927 2927 2926 2925 2923 2922 2922 2921 2920 2919 2919 2918 2917 2916 2915 2913 2912 2911 2911 2910 2910 2909 2909 2909 2908 2908 2908 2907 2907 2907 2907 2907 2907 2907 2906 2906 2905 2903 2903 2903 2903 2903 2903 2903 2903 2902 2902 2902 2902 2902 2902 2902 2903 2903 2904 2904 2904 2904 2904 2905
2936 2934 2933 2932 2931 2930 2929 2928 2927 2926 2925 2924 2923 2922 2922 2921 2920 2919 2918 2917 2917 2916 2915 2914 2913 2912 2910 2910 2909 2908 2908 2907 2907 2907 2907 2906 2906 2905 2905 2905 2905 2905 2905 2904 2904 2903 2902 2901 2901 2902 2902 2902 2902 2901 2901 2901 2900 2900 2900 2900 2901 2901 2902 2902 2902 2902 2902 2902 2902